YUBILEINY (RS30)

Last updated on Mon Sep 21 2026 00:03:14 GMT+0000 (Coordinated Universal Time)

1 32953U 08025A 26263.54548266 .00000007 00000+0 -20595-4 0 9998 2 32953 82.5014 296.1320 0020730 103.3174 257.0219 12.43182929831546
UTC large
Height (km)
Speed (km/s)
/
Latitude / Longitude
Inclination (degrees)
Orbital Period (minutes)
Azimuth
Elevation
Range (km)
Doppler Factor

Next 0 passes for location: London (51.5072 / 0.1276)

No passes found over London.
YUBILEINY (RS30)